Regional Weather Roundup
Issued by NWS Green Bay, WI

Home | Current Version | Previous Version | Text Only | Print | Product List | Glossary On
Versions: 1 2 3 4 5 6 7 8 9 10 11 12 13 14 15 16 17 18 19 20 21 22 23 24 25 26 27 28 29 30 31 32 33 34 35 36 37 38 39 40 41 42 43 44 45 46 47 48 49 50
000
ASUS43 KGRB 250810
RWRGRB

NORTH-CENTRAL AND NORTHEAST WISCONSIN REGIONAL WEATHER ROUNDUP
NATIONAL WEATHER SERVICE GREEN BAY WI
200 AM CST THU DEC 25 2014

WIZ005-009-010>012-018-019-250900-
NORTH CENTRAL WISCONSIN

CITY           SKY/WX    TMP DP  RH WIND       PRES   REMARKS
IRONWOOD       CLOUDY    32  30  93 W7        29.48R
MANITOWISH WTR CLOUDY    30  30 100 W7        29.50R
ARBOR VITAE    CLOUDY    32  30  92 W8        29.51R
EAGLE RIVER    CLOUDY    30  30  98 W9        29.50R
LAND O LAKES   CLOUDY    31  30  95 W7        29.50R
RHINELANDER    CLOUDY    30  27  88 W14       29.52R
PHILLIPS       CLOUDY    30  27  88 W7        29.53R
ANTIGO         CLOUDY    30  28  93 W10       29.54R
TOMAHAWK       CLOUDY    30  27  89 CALM      29.55R
MERRILL        MOCLDY    30  28  92 W7        29.56R
$$

WIZ013-073-250900-
NORTHEAST WISCONSIN

CITY           SKY/WX    TMP DP  RH WIND       PRES   REMARKS
IRON MOUNTAIN  CLOUDY    32  28  85 W7        29.49R
MARINETTE      MOCLDY    32  28  86 W5        29.53R
OCONTO         CLEAR     31  31  98 SW5       29.56R
$$

WIZ017-030-035>037-045-250900-
CENTRAL WISCONSIN

CITY           SKY/WX    TMP DP  RH WIND       PRES   REMARKS
MEDFORD        CLOUDY    31  27  84 SW6       29.56R
WAUSAU         CLEAR     30  27  88 W8        29.56R
MOSINEE        CLEAR     30  30 100 W9        29.58S
MARSHFIELD     CLOUDY    33  28  81 SW9       29.59R
WISC RAPIDS    CLOUDY    33  27  78 W6        29.62R
STEVENS POINT  MOCLDY    29  27  90 W8        29.60R
WAUPACA        CLEAR     32  29  88 SW6       29.61R
SHAWANO        CLOUDY    35  30  83 W5        29.58R
CLINTONVILLE   PTCLDY    32  30  93 W6        29.59R
$$

WIZ038-039-048-051-250900-
FOX VALLEY

CITY           SKY/WX    TMP DP  RH WIND       PRES   REMARKS
NWS GREEN BAY  PTCLDY    34  30  85 W12       29.59R
APPLETON       MOCLDY    32  32 100 W12       29.61R
OSHKOSH        CLOUDY    34  30  85 W8        29.62R
FOND DU LAC    CLOUDY    34  30  85 W8        29.63R
$$

WIZ022-050-052-250900-
EAST CENTRAL WISCONSIN

CITY           SKY/WX    TMP DP  RH WIND       PRES   REMARKS
STURGEON BAY   CLOUDY    34  28  80 W10       29.57R
MANITOWOC      CLOUDY    34  31  88 W12       29.60R
SHEBOYGAN      CLOUDY    34  30  85 W12       29.62R
$$

LMZ563-521-522-541>543-250900-
LAKESHORE

STATION/POSITION TIME  TEMP    WIND        PRES    VSBY  WAVE
                       AIR SEA DIR/SP/G                  HT/PER
                 (UTC) (F)     (DEG/KT/KT) (MB)    (MI)  (FT/S)
SHEBOYGAN LKSHOR 0800   36 37  280/ 14/ 17 1003.7R
KEWAUNEE LKSHORE 0800   35     280/ 10/ 15 1000.7R
ALGOMA MARINA    0800          270/  8/ 11   N/A
NORTHPORT PIER   0800   34     280/  7/ 11  999.7R
SISTER BAY LKSHO 0700          310/ 16/ 18   N/A
CHAMBERS ISLAND  0800   33     220/  7/ 11 1000.3R
MENOMINEE LKSHOR 0800   33     240/  8/ 12 1001.1R
$$



USA.gov is the U.S. government's official web portal to all federal, state and local government web resources and services.